Nausori, Fiji

3:53 PM +12 on May 25, 2018 (GMT +1200)
Nausori International

Weather History for NFNA - January, 2010

Change the Weather History Date:

Sunday, January 17, 2010

  Actual Average Record
Temperature  
Mean Temperature 80 °F -  
Max Temperature 86 °F 88 °F - ()
Min Temperature 73 °F 75 °F - ()
Cooling Degree Days 14    
Growing Degree Days 30 (Base 50)    
Moisture  
Dew Point 72 °F    
Average Humidity 77    
Maximum Humidity 97    
Minimum Humidity 56    
Precipitation  
Precipitation 0.00 in 0.39 in - ()
Sea Level Pressure  
Sea Level Pressure 29.77 in    
Wind  
Wind Speed 3 mph ()    
Max Wind Speed 17 mph    
Max Gust Speed -    
Visibility 12.0 miles    
Events      
T = Trace of Precipitation, MM = Missing Value Source: Averaged Metar Reports

Daily Weather History Graph

Daily Weather History Graph

Search for Another Location

Airport or City:

Astronomy

Jan. 17, 2010 Rise Set
Actual Time 6:43 AM +13 7:47 PM +13
Civil Twilight 6:19 AM +13 8:11 PM +13
Nautical Twilight 5:51 AM +13 8:39 PM +13
Astronomical Twilight 5:22 AM +13 9:08 PM +13
Moon 7:59 AM +13 (1/17) 8:58 PM +13 (1/17)
Length of Visible Light 13h 51m
Length of Day
13h 04m
New Moon, 2% of the Moon is Illuminated
Jan 17
New Moon
Jan 23
First Quarter
Jan 30
Full
Feb 6
Last Quarter
Feb 14
New

Hourly Weather History & Observations

Time (+13) Temp. Heat Index Dew Point Humidity Pressure Visibility Wind Dir Wind Speed Gust Speed Precip Events Conditions
12:00 AM 77.0 °F - 71.6 °F 83% 29.80 in 31.1 mi Calm Calm - N/A   Scattered Clouds
1:00 AM 77 °F - 72 °F 79% 29.80 in 31 mi Calm Calm - -   Partly Cloudy
1:00 AM 77.0 °F - 71.6 °F 83% 29.77 in 31.1 mi Calm Calm - N/A   Mostly Cloudy
2:00 AM 77.0 °F - 71.6 °F 83% 29.77 in 31.1 mi Calm Calm - N/A   Partly Cloudy
3:00 AM 73.4 °F - 71.6 °F 94% 29.74 in 31.1 mi Calm Calm - N/A   Scattered Clouds
4:00 AM 74 °F - 72 °F 91% 29.76 in 31 mi Calm Calm - -   Partly Cloudy
4:00 AM 73.4 °F - 71.6 °F 94% 29.74 in 31.1 mi Calm Calm - N/A   Mostly Cloudy
5:00 AM 73.4 °F - 71.6 °F 94% 29.74 in 31.1 mi Calm Calm - N/A   Mostly Cloudy
6:00 AM 73.4 °F - 71.6 °F 94% 29.74 in 31.1 mi Calm Calm - N/A   Mostly Cloudy
7:00 AM 74 °F - 73 °F 97% 29.78 in 31 mi Calm Calm - -   Partly Cloudy
7:00 AM 75.2 °F - 73.4 °F 94% 29.77 in 31.1 mi Calm Calm - N/A   Mostly Cloudy
8:00 AM 77.0 °F - 75.2 °F 94% 29.80 in 31.1 mi Calm Calm - N/A   Mostly Cloudy
9:00 AM 80.6 °F 85.4 °F 73.4 °F 79% 29.80 in 31.1 mi Calm Calm - N/A   Scattered Clouds
10:00 AM 83 °F - 70 °F 56% 29.81 in 31 mi Calm Calm - -   Partly Cloudy
10:00 AM 84.2 °F 88.4 °F 69.8 °F 62% 29.80 in 31.1 mi Calm Calm - N/A   Scattered Clouds
11:00 AM 84.2 °F 88.4 °F 69.8 °F 62% 29.80 in 31.1 mi Calm Calm - N/A   Mostly Cloudy
12:00 PM 84.2 °F 88.4 °F 69.8 °F 62% 29.80 in 31.1 mi Calm Calm - N/A   Mostly Cloudy
1:00 PM 83 °F - 71 °F 60% 29.78 in 31 mi East 11.5 mph - -   Partly Cloudy
1:00 PM 84.2 °F 89.6 °F 71.6 °F 66% 29.77 in 31.1 mi East 11.5 mph - N/A   Mostly Cloudy
2:00 PM 86.0 °F 91.8 °F 71.6 °F 62% 29.77 in 31.1 mi East 11.5 mph - N/A   Scattered Clouds
3:00 PM 84.2 °F 89.6 °F 71.6 °F 66% 29.74 in 31.1 mi ESE 17.3 mph - N/A   Scattered Clouds
4:00 PM 84 °F - 72 °F 60% 29.75 in 31 mi ESE 16.1 mph - -   Partly Cloudy
4:00 PM 84.2 °F 89.6 °F 71.6 °F 66% 29.74 in 31.1 mi ESE 16.1 mph - N/A   Mostly Cloudy
5:00 PM 82.4 °F 87.2 °F 71.6 °F 70% 29.71 in 31.1 mi ESE 11.5 mph - N/A   Mostly Cloudy
6:00 PM 82.4 °F 88.2 °F 73.4 °F 74% 29.71 in 31.1 mi ESE 13.8 mph - N/A   Scattered Clouds
7:00 PM 82 °F - 72 °F 66% 29.75 in 31 mi East 9.2 mph - -   Partly Cloudy
7:00 PM 82.4 °F 88.2 °F 73.4 °F 74% 29.74 in 31.1 mi East 9.2 mph - N/A   Mostly Cloudy
8:00 PM 80.6 °F 85.4 °F 73.4 °F 79% 29.77 in 31.1 mi ESE 8.1 mph - N/A   Mostly Cloudy
9:00 PM 80.6 °F 85.4 °F 73.4 °F 79% 29.77 in 24.9 mi East 8.1 mph - N/A   Mostly Cloudy
10:00 PM 80 °F - 73 °F 74% 29.80 in 12 mi ESE 5.8 mph - -   Partly Cloudy
10:00 PM 80.6 °F 85.4 °F 73.4 °F 79% 29.80 in 24.9 mi ESE 5.8 mph - N/A   Mostly Cloudy
11:00 PM 80.6 °F 85.4 °F 73.4 °F 79% 29.80 in 31.1 mi Calm Calm - N/A   Mostly Cloudy